GW0356 Weather Reports


Display with metric or nautical units.
time (UTC)temp
F
wind
direction
speed
MPH
gust
MPH
rain 1hr
in
rain 24hr
in
rain mn
in
humidity
%
barometer
mb
20260506091522 36 339 3.0 7.0 0.00 0.00 0.00 68 1014.6
20260506090021 37 329 4.0 7.0 0.00 0.00 0.00 67 1014.6
20260506084523 38 340 6.0 10.0 0.00 0.00 0.00 66 1014.6
20260506083021 37 330 6.0 8.0 0.00 0.00 0.00 66 1014.4
20260506081523 37 293 3.0 5.0 0.00 0.00 0.00 66 1014.5
20260506073025 36 292 2.0 4.0 0.00 0.00 0.00 68 1014.0
20260506071524 38 290 3.0 5.0 0.00 0.00 0.00 65 1013.7
20260506061519 39 304 3.0 4.0 0.00 0.00 0.00 61 1013.9
20260506044515 41 316 2.0 4.0 0.00 0.00 0.00 55 1013.2
20260506043007 41 306 1.0 2.0 0.00 0.00 0.00 54 1013.3
20260506041506 41 292 1.0 3.0 0.00 0.00 0.00 56 1013.4
20260506040004 43 318 0.0 2.0 0.00 0.00 0.00 49 1013.3
20260506034503 43 300 1.0 2.0 0.00 0.00 0.00 50 1013.3
20260506033002 44 300 1.0 2.0 0.00 0.00 0.00 48 1013.2
20260506031605 44 310 2.0 3.0 0.00 0.00 0.00 48 1013.2
20260506030125 44 303 3.0 5.0 0.00 0.00 0.00 47 1013.2
20260506024602 45 305 3.0 5.0 0.00 0.00 0.00 47 1013.2
20260506023059 45 327 5.0 8.0 0.00 0.00 0.00 46 1013.1
20260506021600 45 319 6.0 9.0 0.00 0.00 0.00 46 1012.8
20260506020053 46 324 5.0 7.0 0.00 0.00 0.00 45 1012.6
20260506014558 46 318 5.0 7.0 0.00 0.00 0.00 45 1012.3
20260506013051 46 341 5.0 7.0 0.00 0.00 0.00 45 1012.1
20260506011544 47 328 6.0 9.0 0.00 0.00 0.00 43 1012.1
20260506010051 47 325 7.0 10.0 0.00 0.00 0.00 42 1012.0
20260506004549 48 328 8.0 12.0 0.00 0.00 0.00 41 1011.8
20260506003042 48 321 5.0 10.0 0.00 0.00 0.00 42 1011.7
20260506001538 48 330 9.0 14.0 0.00 0.00 0.00 41 1011.5
20260506000033 49 313 14.0 21.0 0.00 0.00 0.00 39 1011.5
20260505234533 49 308 10.0 19.0 0.00 0.00 0.00 40 1011.4
20260505233027 49 320 9.0 16.0 0.00 0.00 0.00 41 1011.4
20260505231527 49 283 8.0 14.0 0.00 0.00 0.00 40 1011.4
20260505230028 49 288 10.0 15.0 0.00 0.00 0.00 39 1011.4
20260505224522 50 307 8.0 19.0 0.00 0.00 0.00 39 1011.5
20260505223017 50 297 10.0 16.0 0.00 0.00 0.00 39 1011.5
20260505221519 50 290 7.0 18.0 0.00 0.00 0.00 38 1011.2
20260505220010 50 271 9.0 21.0 0.00 0.00 0.00 38 1011.3
20260505214508 51 286 10.0 26.0 0.00 0.00 0.00 38 1011.1
20260505213008 52 285 9.0 18.0 0.00 0.00 0.00 39 1011.3
20260505211504 50 298 7.0 16.0 0.00 0.00 0.00 39 1011.3